Content
SEND FEEDBACK

Daily
Averages
Monthly
Summary
United States of America

MILWAUKEE, WISCONSIN


Home > North America > United States > Wisconsin
Elevation: 672 feet     Latitude: 42 57N     Longitude: 087 54W

WEATHER
 
SELECT A DAY
Number of Records: 199,991;   Date Range: 1/1/95 - 9/20/14
 
SHARE

PRINT THIS DATA

[ ← Previous Day ]
WEATHER ALMANAC - FEBRUARY 3, 2014
[ Next Day → ]
[ °C ]   °F
Weather ElementAverageHighLow
Temperature10.5 °F19 °F (3:52 pm)-0.9 °F (2:52 am)
Dewpoint-1.3 °F1.9 °F (2:52 pm)-7.1 °F (2:52 am)
Humidity60.2 %79 % (3:52 am)47 % (3:52 pm)
Barometer30.38 in30.41 in (8:52 am)30.34 in (11:31 am)
Wind Speed5.3 mph9.2 mph (1:52 pm)
Weather ElementAverage
Visibility9.6 mi
Wind DirectionSSW (206.7 °)

Weather ElementTotal
Precipitation---
Heating Degree Days56 (Base 65)
Averaged from 24 records on February 3, 2014
WEATHER CONDITIONS BREAKOUT
WIND DIRECTION BREAKOUT
WEATHER BY HOUR - FEBRUARY 3, 2014
[ °C ]   °F
Local TimeTemperatureDewpointHumidityBarometerVisibilityWind DirectionWind SpeedGust SpeedPrecipitationEventsConditions
1:52 AM1.9 °F-4.0 °F76 %30.35 in9.0 miSW (230°)3.5 mphClear
2:52 AM-0.9 °F-7.1 °F75 %30.36 in10.0 miCalmClear
3:52 AM1.0 °F-4.0 °F79 %30.37 in10.0 miCalmClear
4:52 AM1.0 °F-4.0 °F79 %30.36 in10.0 miWNW (300°)3.5 mphClear
5:52 AM1.9 °F-4.0 °F76 %30.38 in10.0 miWNW (290°)5.8 mphClear
6:52 AM1.9 °F-5.1 °F72 %30.39 in10.0 miWNW (290°)8.1 mphClear
7:52 AM3.9 °F-4.0 °F70 %30.40 in10.0 miWNW (290°)4.6 mphClear
8:52 AM8.1 °F-2.0 °F64 %30.41 in10.0 miWest (280°)3.5 mphClear
9:52 AM12.0 °F0.0 °F59 %30.40 in10.0 miCalmClear
10:52 AM12.9 °F-0.9 °F54 %30.40 in10.0 miSSE (160°)3.5 mphClear
11:31 AM15.1 °F-0.9 °F49 %30.34 in1.8 miSW (220°)3.5 mphHaze
11:52 AM15.1 °F0.0 °F51 %30.39 in10.0 miSouth (190°)4.6 mphClear
12:52 PM16.0 °F0.0 °F49 %30.38 in10.0 miSW (220°)8.1 mphPartly Cloudy
1:52 PM17.1 °F1.0 °F50 %30.36 in10.0 miSSW (210°)9.2 mphPartly Cloudy
2:52 PM18.0 °F1.9 °F50 %30.35 in10.0 miSSW (200°)5.8 mphClear
3:52 PM19.0 °F1.9 °F47 %30.37 in10.0 miSW (230°)9.2 mphScattered Clouds
4:52 PM18.0 °F1.9 °F50 %30.37 in10.0 miSW (230°)9.2 mphMostly Cloudy
5:52 PM17.1 °F1.0 °F50 %30.38 in10.0 miWSW (240°)8.1 mphMostly Cloudy
6:52 PM15.1 °F1.0 °F54 %30.39 in10.0 miSW (220°)4.6 mphMostly Cloudy
7:52 PM12.9 °F0.0 °F56 %30.38 in10.0 miSSW (210°)5.8 mphMostly Cloudy
8:52 PM12.0 °F0.0 °F59 %30.38 in10.0 miSW (230°)6.9 mphMostly Cloudy
9:52 PM12.0 °F-0.9 °F56 %30.38 in10.0 miWSW (240°)5.8 mphScattered Clouds
10:52 PM10.9 °F-0.9 °F59 %30.39 in10.0 miSW (230°)8.1 mphScattered Clouds
11:52 PM10.0 °F-0.9 °F61 %30.40 in10.0 miWSW (250°)4.6 mphScattered Clouds
Hourly data recorded from KMKE, located miles away from Milwaukee, Wisconsin







STORIES FROM OUR PARTNERS